Year,Month,Day,Hour,Minute,Value (Times are PST for temperature in C)
2014,08,25,00,00,15.10
2014,08,25,00,01,15.10
2014,08,25,00,02,15.00
2014,08,25,00,03,15.00
2014,08,25,00,04,14.90
2014,08,25,00,05,14.90
2014,08,25,00,06,14.90
2014,08,25,00,07,14.80
2014,08,25,00,08,14.80
2014,08,25,00,09,14.80
2014,08,25,00,10,14.70
2014,08,25,00,11,14.70
2014,08,25,00,12,14.60
2014,08,25,00,13,14.60
2014,08,25,00,14,14.60
2014,08,25,00,15,14.50
2014,08,25,00,16,14.50
2014,08,25,00,17,14.40
2014,08,25,00,18,14.40
2014,08,25,00,19,14.40
2014,08,25,00,20,14.30
2014,08,25,00,21,14.30
2014,08,25,00,22,14.30
2014,08,25,00,23,14.30
2014,08,25,00,24,14.20
2014,08,25,00,25,14.20
2014,08,25,00,26,14.20
2014,08,25,00,27,14.20
2014,08,25,00,28,14.10
2014,08,25,00,29,14.10
2014,08,25,00,30,14.10
2014,08,25,00,31,14.00
2014,08,25,00,32,14.00
2014,08,25,00,33,14.00
2014,08,25,00,34,14.00
2014,08,25,00,35,13.90
2014,08,25,00,36,13.90
2014,08,25,00,37,13.90
2014,08,25,00,38,13.90
2014,08,25,00,39,13.80
2014,08,25,00,40,13.80
2014,08,25,00,41,13.80
2014,08,25,00,42,13.80
2014,08,25,00,43,13.80
2014,08,25,00,44,13.70
2014,08,25,00,45,13.70
2014,08,25,00,46,13.70
2014,08,25,00,47,13.70
2014,08,25,00,48,13.70
2014,08,25,00,49,13.60
2014,08,25,00,50,13.60
2014,08,25,00,51,13.60
2014,08,25,00,52,13.60
2014,08,25,00,53,13.60
2014,08,25,00,54,13.50
2014,08,25,00,55,13.50
2014,08,25,00,56,13.50
2014,08,25,00,57,13.50
2014,08,25,00,58,13.40
2014,08,25,00,59,13.40
2014,08,25,01,00,13.40
2014,08,25,01,01,13.40
2014,08,25,01,02,13.40
2014,08,25,01,03,13.40
2014,08,25,01,04,13.40
2014,08,25,01,05,13.40
2014,08,25,01,06,13.30
2014,08,25,01,07,13.30
2014,08,25,01,08,13.30
2014,08,25,01,09,13.30
2014,08,25,01,10,13.30
2014,08,25,01,11,13.30
2014,08,25,01,12,13.30
2014,08,25,01,13,13.30
2014,08,25,01,14,13.30
2014,08,25,01,15,13.30
2014,08,25,01,16,13.20
2014,08,25,01,17,13.20
2014,08,25,01,18,13.20
2014,08,25,01,19,13.20
2014,08,25,01,20,13.20
2014,08,25,01,21,13.20
2014,08,25,01,22,13.20
2014,08,25,01,23,13.10
2014,08,25,01,24,13.10
2014,08,25,01,25,13.10
2014,08,25,01,26,13.10
2014,08,25,01,27,13.10
2014,08,25,01,28,13.10
2014,08,25,01,29,13.10
2014,08,25,01,30,13.00
2014,08,25,01,31,13.00
2014,08,25,01,32,13.00
2014,08,25,01,33,13.00
2014,08,25,01,34,12.90
2014,08,25,01,35,12.90
2014,08,25,01,36,12.90
2014,08,25,01,37,12.90
2014,08,25,01,38,12.90
2014,08,25,01,39,12.90
2014,08,25,01,40,12.80
2014,08,25,01,41,12.80
2014,08,25,01,42,12.80
2014,08,25,01,43,12.80
2014,08,25,01,44,12.80
2014,08,25,01,45,12.80
2014,08,25,01,46,12.80
2014,08,25,01,47,12.80
2014,08,25,01,48,12.80
2014,08,25,01,49,12.80
2014,08,25,01,50,12.80
2014,08,25,01,51,12.80
2014,08,25,01,52,12.80
2014,08,25,01,53,12.80
2014,08,25,01,54,12.80
2014,08,25,01,55,12.80
2014,08,25,01,56,12.80
2014,08,25,01,57,12.80
2014,08,25,01,58,12.80
2014,08,25,01,59,12.80
2014,08,25,02,00,12.80
2014,08,25,02,01,12.80
2014,08,25,02,02,12.80
2014,08,25,02,03,12.80
2014,08,25,02,04,12.80
2014,08,25,02,05,12.80
2014,08,25,02,06,12.70
2014,08,25,02,07,12.70
2014,08,25,02,08,12.70
2014,08,25,02,09,12.70
2014,08,25,02,10,12.70
2014,08,25,02,11,12.70
2014,08,25,02,12,12.70
2014,08,25,02,13,12.70
2014,08,25,02,14,12.70
2014,08,25,02,15,12.70
2014,08,25,02,16,12.70
2014,08,25,02,17,12.70
2014,08,25,02,18,12.70
2014,08,25,02,19,12.70
2014,08,25,02,20,12.70
2014,08,25,02,21,12.70
2014,08,25,02,22,12.70
2014,08,25,02,23,12.70
2014,08,25,02,24,12.70
2014,08,25,02,25,12.80
2014,08,25,02,26,12.80
2014,08,25,02,27,12.80
2014,08,25,02,28,12.80
2014,08,25,02,29,12.80
2014,08,25,02,30,12.80
2014,08,25,02,31,12.90
2014,08,25,02,32,12.90
2014,08,25,02,33,12.90
2014,08,25,02,34,12.90
2014,08,25,02,35,12.90
2014,08,25,02,36,12.90
2014,08,25,02,37,12.90
2014,08,25,02,38,12.90
2014,08,25,02,39,12.90
2014,08,25,02,40,12.90
2014,08,25,02,41,12.90
2014,08,25,02,42,13.00
2014,08,25,02,43,13.00
2014,08,25,02,44,13.00
2014,08,25,02,45,13.00
2014,08,25,02,46,13.00
2014,08,25,02,47,13.00
2014,08,25,02,48,13.00
2014,08,25,02,49,13.00
2014,08,25,02,50,13.00
2014,08,25,02,51,13.00
2014,08,25,02,52,13.00
2014,08,25,02,53,13.00
2014,08,25,02,54,13.00
2014,08,25,02,55,13.00
2014,08,25,02,56,13.00
2014,08,25,02,57,13.00
2014,08,25,02,58,13.00
2014,08,25,02,59,13.10
2014,08,25,03,00,13.10
2014,08,25,03,01,13.10
2014,08,25,03,02,13.10
2014,08,25,03,03,13.10
2014,08,25,03,04,13.10
2014,08,25,03,05,13.10
2014,08,25,03,06,13.10
2014,08,25,03,07,13.10
2014,08,25,03,08,13.10
2014,08,25,03,09,13.10
2014,08,25,03,10,13.20
2014,08,25,03,11,13.20
2014,08,25,03,12,13.10
2014,08,25,03,13,13.10
2014,08,25,03,14,13.10
2014,08,25,03,15,13.10
2014,08,25,03,16,13.20
2014,08,25,03,17,13.10
2014,08,25,03,18,13.20
2014,08,25,03,19,13.10
2014,08,25,03,20,13.10
2014,08,25,03,21,13.10
2014,08,25,03,22,13.10
2014,08,25,03,23,13.10
2014,08,25,03,24,13.10
2014,08,25,03,25,13.10
2014,08,25,03,26,13.00
2014,08,25,03,27,13.00
2014,08,25,03,28,13.00
2014,08,25,03,29,12.90
2014,08,25,03,30,12.90
2014,08,25,03,31,12.90
2014,08,25,03,32,12.90
2014,08,25,03,33,12.80
2014,08,25,03,34,12.80
2014,08,25,03,35,12.80
2014,08,25,03,36,12.80
2014,08,25,03,37,12.80
2014,08,25,03,38,12.70
2014,08,25,03,39,12.70
2014,08,25,03,40,12.70
2014,08,25,03,41,12.70
2014,08,25,03,42,12.60
2014,08,25,03,43,12.60
2014,08,25,03,44,12.60
2014,08,25,03,45,12.60
2014,08,25,03,46,12.60
2014,08,25,03,47,12.60
2014,08,25,03,48,12.50
2014,08,25,03,49,12.50
2014,08,25,03,50,12.50
2014,08,25,03,51,12.40
2014,08,25,03,52,12.40
2014,08,25,03,53,12.40
2014,08,25,03,54,12.40
2014,08,25,03,55,12.40
2014,08,25,03,56,12.30
2014,08,25,03,57,12.30
2014,08,25,03,58,12.30
2014,08,25,03,59,12.30
2014,08,25,04,00,12.30
2014,08,25,04,01,12.30
2014,08,25,04,02,12.20
2014,08,25,04,03,12.20
2014,08,25,04,04,12.20
2014,08,25,04,05,12.20
2014,08,25,04,06,12.20
2014,08,25,04,07,12.20
2014,08,25,04,08,12.10
2014,08,25,04,09,12.10
2014,08,25,04,10,12.10
2014,08,25,04,11,12.10
2014,08,25,04,12,12.10
2014,08,25,04,13,12.00
2014,08,25,04,14,12.00
2014,08,25,04,15,12.00
2014,08,25,04,16,12.00
2014,08,25,04,17,12.00
2014,08,25,04,18,12.00
2014,08,25,04,19,11.90
2014,08,25,04,20,11.90
2014,08,25,04,21,11.90
2014,08,25,04,22,11.90
2014,08,25,04,23,11.90
2014,08,25,04,24,11.90
2014,08,25,04,25,11.90
2014,08,25,04,26,11.80
2014,08,25,04,27,11.80
2014,08,25,04,28,11.80
2014,08,25,04,29,11.80
2014,08,25,04,30,11.80
2014,08,25,04,31,11.80
2014,08,25,04,32,11.80
2014,08,25,04,33,11.70
2014,08,25,04,34,11.70
2014,08,25,04,35,11.70
2014,08,25,04,36,11.70
2014,08,25,04,37,11.70
2014,08,25,04,38,11.70
2014,08,25,04,39,11.70
2014,08,25,04,40,11.70
2014,08,25,04,41,11.60
2014,08,25,04,42,11.60
2014,08,25,04,43,11.60
2014,08,25,04,44,11.60
2014,08,25,04,45,11.60
2014,08,25,04,46,11.60
2014,08,25,04,47,11.60
2014,08,25,04,48,11.60
2014,08,25,04,49,11.60
2014,08,25,04,50,11.50
2014,08,25,04,51,11.50
2014,08,25,04,52,11.50
2014,08,25,04,53,11.50
2014,08,25,04,54,11.50
2014,08,25,04,55,11.40
2014,08,25,04,56,11.50
2014,08,25,04,57,11.40
2014,08,25,04,58,11.40
2014,08,25,04,59,11.40
2014,08,25,05,00,11.40
2014,08,25,05,01,11.40
2014,08,25,05,02,11.40
2014,08,25,05,03,11.40
2014,08,25,05,04,11.40
2014,08,25,05,05,11.40
2014,08,25,05,06,11.40
2014,08,25,05,07,11.40
2014,08,25,05,08,11.40
2014,08,25,05,09,11.40
2014,08,25,05,10,11.40
2014,08,25,05,11,11.40
2014,08,25,05,12,11.40
2014,08,25,05,13,11.40
2014,08,25,05,14,11.40
2014,08,25,05,15,11.40
2014,08,25,05,16,11.40
2014,08,25,05,17,11.40
2014,08,25,05,18,11.40
2014,08,25,05,19,11.40
2014,08,25,05,20,11.40
2014,08,25,05,21,11.40
2014,08,25,05,22,11.40
2014,08,25,05,23,11.40
2014,08,25,05,24,11.40
2014,08,25,05,25,11.40
2014,08,25,05,26,11.40
2014,08,25,05,27,11.40
2014,08,25,05,28,11.40
2014,08,25,05,29,11.40
2014,08,25,05,30,11.40
2014,08,25,05,31,11.30
2014,08,25,05,32,11.30
2014,08,25,05,33,11.30
2014,08,25,05,34,11.30
2014,08,25,05,35,11.30
2014,08,25,05,36,11.30
2014,08,25,05,37,11.30
2014,08,25,05,38,11.30
2014,08,25,05,39,11.30
2014,08,25,05,40,11.20
2014,08,25,05,41,11.20
2014,08,25,05,42,11.20
2014,08,25,05,43,11.20
2014,08,25,05,44,11.20
2014,08,25,05,45,11.20
2014,08,25,05,46,11.20
2014,08,25,05,47,11.20
2014,08,25,05,48,11.20
2014,08,25,05,49,11.10
2014,08,25,05,50,11.10
2014,08,25,05,51,11.10
2014,08,25,05,52,11.10
2014,08,25,05,53,11.10
2014,08,25,05,54,11.10
2014,08,25,05,55,11.10
2014,08,25,05,56,11.10
2014,08,25,05,57,11.10
2014,08,25,05,58,11.10
2014,08,25,05,59,11.10
2014,08,25,06,00,11.10
2014,08,25,06,01,11.10
2014,08,25,06,02,11.10
2014,08,25,06,03,11.10
2014,08,25,06,04,11.10
2014,08,25,06,05,11.10
2014,08,25,06,06,11.10
2014,08,25,06,07,11.10
2014,08,25,06,08,11.10
2014,08,25,06,09,11.10
2014,08,25,06,10,11.10
2014,08,25,06,11,11.10
2014,08,25,06,12,11.10
2014,08,25,06,13,11.10
2014,08,25,06,14,11.10
2014,08,25,06,15,11.10
2014,08,25,06,16,11.10
2014,08,25,06,17,11.00
2014,08,25,06,18,11.00
2014,08,25,06,19,11.00
2014,08,25,06,20,11.00
2014,08,25,06,21,10.90
2014,08,25,06,22,10.90
2014,08,25,06,23,10.90
2014,08,25,06,24,10.90
2014,08,25,06,25,10.90
2014,08,25,06,26,10.90
2014,08,25,06,27,10.80
2014,08,25,06,28,10.80
2014,08,25,06,29,10.80
2014,08,25,06,30,10.80
2014,08,25,06,31,10.80
2014,08,25,06,32,10.80
2014,08,25,06,33,10.80
2014,08,25,06,34,10.80
2014,08,25,06,35,10.80
2014,08,25,06,36,10.80
2014,08,25,06,37,10.80
2014,08,25,06,38,10.80
2014,08,25,06,39,10.80
2014,08,25,06,40,10.80
2014,08,25,06,41,10.80
2014,08,25,06,42,10.80
2014,08,25,06,43,10.80
2014,08,25,06,44,10.80
2014,08,25,06,45,10.80
2014,08,25,06,46,10.80
2014,08,25,06,47,10.80
2014,08,25,06,48,10.80
2014,08,25,06,49,10.80
2014,08,25,06,50,10.80
2014,08,25,06,51,10.80
2014,08,25,06,52,10.90
2014,08,25,06,53,10.80
2014,08,25,06,54,10.90
2014,08,25,06,55,10.90
2014,08,25,06,56,10.90
2014,08,25,06,57,10.90
2014,08,25,06,58,10.90
2014,08,25,06,59,10.90
2014,08,25,07,00,10.90
2014,08,25,07,01,10.90
2014,08,25,07,02,10.90
2014,08,25,07,03,11.00
2014,08,25,07,04,11.00
2014,08,25,07,05,11.00
2014,08,25,07,06,11.00
2014,08,25,07,07,11.00
2014,08,25,07,08,11.00
2014,08,25,07,09,11.10
2014,08,25,07,10,11.10
2014,08,25,07,11,11.10
2014,08,25,07,12,11.10
2014,08,25,07,13,11.20
2014,08,25,07,14,11.20
2014,08,25,07,15,11.20
2014,08,25,07,16,11.20
2014,08,25,07,17,11.20
2014,08,25,07,18,11.20
2014,08,25,07,19,11.20
2014,08,25,07,20,11.30
2014,08,25,07,21,11.30
2014,08,25,07,22,11.30
2014,08,25,07,23,11.30
2014,08,25,07,24,11.30
2014,08,25,07,25,11.30
2014,08,25,07,26,11.30
2014,08,25,07,27,11.30
2014,08,25,07,28,11.30
2014,08,25,07,29,11.40
2014,08,25,07,30,11.40
2014,08,25,07,31,11.50
2014,08,25,07,32,11.50
2014,08,25,07,33,11.50
2014,08,25,07,34,11.60
2014,08,25,07,35,11.60
2014,08,25,07,36,11.70
2014,08,25,07,37,11.70
2014,08,25,07,38,11.70
2014,08,25,07,39,11.80
2014,08,25,07,40,11.80
2014,08,25,07,41,11.90
2014,08,25,07,42,12.00
2014,08,25,07,43,12.00
2014,08,25,07,44,12.10
2014,08,25,07,45,12.10
2014,08,25,07,46,12.20
2014,08,25,07,47,12.30
2014,08,25,07,48,12.30
2014,08,25,07,49,12.40
2014,08,25,07,50,12.50
2014,08,25,07,51,12.50
2014,08,25,07,52,12.60
2014,08,25,07,53,12.60
2014,08,25,07,54,12.70
2014,08,25,07,55,12.80
2014,08,25,07,56,12.80
2014,08,25,07,57,12.90
2014,08,25,07,58,13.00
2014,08,25,07,59,13.10
2014,08,25,08,00,13.10
2014,08,25,08,01,13.20
2014,08,25,08,02,13.20
2014,08,25,08,03,13.30
2014,08,25,08,04,13.40
2014,08,25,08,05,13.50
2014,08,25,08,06,13.60
2014,08,25,08,07,13.70
2014,08,25,08,08,13.80
2014,08,25,08,09,13.80
2014,08,25,08,10,13.90
2014,08,25,08,11,14.10
2014,08,25,08,12,14.20
2014,08,25,08,13,14.30
2014,08,25,08,14,14.40
2014,08,25,08,15,14.50
2014,08,25,08,16,14.60
2014,08,25,08,17,14.70
2014,08,25,08,18,14.80
2014,08,25,08,19,15.00
2014,08,25,08,20,15.10
2014,08,25,08,21,15.20
2014,08,25,08,22,15.30
2014,08,25,08,23,15.40
2014,08,25,08,24,15.60
2014,08,25,08,25,15.80
2014,08,25,08,26,15.90
2014,08,25,08,27,16.10
2014,08,25,08,28,16.20
2014,08,25,08,29,16.30
2014,08,25,08,30,16.40
2014,08,25,08,31,16.50
2014,08,25,08,32,16.60
2014,08,25,08,33,16.70
2014,08,25,08,34,16.80
2014,08,25,08,35,16.90
2014,08,25,08,36,17.00
2014,08,25,08,37,17.10
2014,08,25,08,38,17.20
2014,08,25,08,39,17.40
2014,08,25,08,40,17.50
2014,08,25,08,41,17.70
2014,08,25,08,42,17.80
2014,08,25,08,43,18.00
2014,08,25,08,44,18.10
2014,08,25,08,45,18.20
2014,08,25,08,46,18.40
2014,08,25,08,47,18.50
2014,08,25,08,48,18.60
2014,08,25,08,49,18.70
2014,08,25,08,50,18.70
2014,08,25,08,51,18.80
2014,08,25,08,52,18.80
2014,08,25,08,53,18.90
2014,08,25,08,54,19.00
2014,08,25,08,55,19.00
2014,08,25,08,56,19.00
2014,08,25,08,57,19.10
2014,08,25,08,58,19.10
2014,08,25,08,59,19.20
2014,08,25,09,00,19.20
2014,08,25,09,01,19.20
2014,08,25,09,02,19.30
2014,08,25,09,03,19.30
2014,08,25,09,04,19.30
2014,08,25,09,05,19.30
2014,08,25,09,06,19.40
2014,08,25,09,07,19.40
2014,08,25,09,08,19.40
2014,08,25,09,09,19.40
2014,08,25,09,10,19.50
2014,08,25,09,11,19.50
2014,08,25,09,12,19.50
2014,08,25,09,13,19.60
2014,08,25,09,14,19.60
2014,08,25,09,15,19.60
2014,08,25,09,16,19.60
2014,08,25,09,17,19.60
2014,08,25,09,18,19.70
2014,08,25,09,19,19.70
2014,08,25,09,20,19.70
2014,08,25,09,21,19.70
2014,08,25,09,22,19.70
2014,08,25,09,23,19.70
2014,08,25,09,24,19.70
2014,08,25,09,25,19.80
2014,08,25,09,26,19.80
2014,08,25,09,27,19.80
2014,08,25,09,28,19.80
2014,08,25,09,29,19.80
2014,08,25,09,30,19.80
2014,08,25,09,31,19.90
2014,08,25,09,32,19.90
2014,08,25,09,33,20.00
2014,08,25,09,34,20.00
2014,08,25,09,35,20.00
2014,08,25,09,36,20.00
2014,08,25,09,37,20.10
2014,08,25,09,38,20.10
2014,08,25,09,39,20.10
2014,08,25,09,40,20.10
2014,08,25,09,41,20.10
2014,08,25,09,42,20.10
2014,08,25,09,43,20.10
2014,08,25,09,44,20.10
2014,08,25,09,45,20.00
2014,08,25,09,46,20.10
2014,08,25,09,47,20.10
2014,08,25,09,48,20.10
2014,08,25,09,49,20.20
2014,08,25,09,50,20.20
2014,08,25,09,51,20.20
2014,08,25,09,52,20.20
2014,08,25,09,53,20.30
2014,08,25,09,54,20.30
2014,08,25,09,55,20.40
2014,08,25,09,56,20.40
2014,08,25,09,57,20.50
2014,08,25,09,58,20.60
2014,08,25,09,59,20.70
2014,08,25,10,00,20.70
2014,08,25,10,01,20.70
2014,08,25,10,02,20.70
2014,08,25,10,03,20.60
2014,08,25,10,04,20.60
2014,08,25,10,05,20.50
2014,08,25,10,06,20.40
2014,08,25,10,07,20.40
2014,08,25,10,08,20.40
2014,08,25,10,09,20.40
2014,08,25,10,10,20.30
2014,08,25,10,11,20.30
2014,08,25,10,12,20.30
2014,08,25,10,13,20.40
2014,08,25,10,14,20.40
2014,08,25,10,15,20.40
2014,08,25,10,16,20.50
2014,08,25,10,17,20.50
2014,08,25,10,18,20.60
2014,08,25,10,19,20.60
2014,08,25,10,20,20.70
2014,08,25,10,21,20.70
2014,08,25,10,22,20.70
2014,08,25,10,23,20.70
2014,08,25,10,24,20.60
2014,08,25,10,25,20.60
2014,08,25,10,26,20.70
2014,08,25,10,27,20.70
2014,08,25,10,28,20.70
2014,08,25,10,29,20.80
2014,08,25,10,30,20.80
2014,08,25,10,31,20.80
2014,08,25,10,32,20.90
2014,08,25,10,33,20.90
2014,08,25,10,34,20.90
2014,08,25,10,35,20.80
2014,08,25,10,36,20.90
2014,08,25,10,37,20.90
2014,08,25,10,38,20.90
2014,08,25,10,39,20.90
2014,08,25,10,40,20.90
2014,08,25,10,41,20.90
2014,08,25,10,42,20.90
2014,08,25,10,43,21.00
2014,08,25,10,44,21.00
2014,08,25,10,45,21.10
2014,08,25,10,46,21.20
2014,08,25,10,47,21.30
2014,08,25,10,48,21.30
2014,08,25,10,49,21.40
2014,08,25,10,50,21.50
2014,08,25,10,51,21.60
2014,08,25,10,52,21.80
2014,08,25,10,53,21.80
2014,08,25,10,54,21.90
2014,08,25,10,55,21.90
2014,08,25,10,56,21.80
2014,08,25,10,57,21.80
2014,08,25,10,58,21.90
2014,08,25,10,59,21.90
2014,08,25,11,00,21.90
2014,08,25,11,01,21.90
2014,08,25,11,02,21.90
2014,08,25,11,03,21.90
2014,08,25,11,04,22.00
2014,08,25,11,05,22.00
2014,08,25,11,06,22.10
2014,08,25,11,07,22.10
2014,08,25,11,08,22.10
2014,08,25,11,09,22.00
2014,08,25,11,10,22.00
2014,08,25,11,11,22.00
2014,08,25,11,12,22.00
2014,08,25,11,13,22.10
2014,08,25,11,14,22.20
2014,08,25,11,15,22.30
2014,08,25,11,16,22.40
2014,08,25,11,17,22.50
2014,08,25,11,18,22.60
2014,08,25,11,19,22.70
2014,08,25,11,20,22.80
2014,08,25,11,21,22.80
2014,08,25,11,22,22.80
2014,08,25,11,23,22.80
2014,08,25,11,24,22.70
2014,08,25,11,25,22.70
2014,08,25,11,26,22.60
2014,08,25,11,27,22.60
2014,08,25,11,28,22.60
2014,08,25,11,29,22.50
2014,08,25,11,30,22.40
2014,08,25,11,31,22.30
2014,08,25,11,32,22.30
2014,08,25,11,33,22.30
2014,08,25,11,34,22.30
2014,08,25,11,35,22.30
2014,08,25,11,36,22.30
2014,08,25,11,37,22.40
2014,08,25,11,38,22.40
2014,08,25,11,39,22.50
2014,08,25,11,40,22.50
2014,08,25,11,41,22.60
2014,08,25,11,42,22.70
2014,08,25,11,43,22.90
2014,08,25,11,44,22.90
2014,08,25,11,45,23.00
2014,08,25,11,46,23.00
2014,08,25,11,47,23.00
2014,08,25,11,48,23.10
2014,08,25,11,49,23.10
2014,08,25,11,50,23.20
2014,08,25,11,51,23.30
2014,08,25,11,52,23.30
2014,08,25,11,53,23.30
2014,08,25,11,54,23.30
2014,08,25,11,55,23.30
2014,08,25,11,56,23.30
2014,08,25,11,57,23.20
2014,08,25,11,58,23.20
2014,08,25,11,59,23.20
2014,08,25,12,00,23.20
2014,08,25,12,01,23.20
2014,08,25,12,02,23.20
2014,08,25,12,03,23.20
2014,08,25,12,04,23.20
2014,08,25,12,05,23.20
2014,08,25,12,06,23.10
2014,08,25,12,07,23.10
2014,08,25,12,08,23.10
2014,08,25,12,09,23.10
2014,08,25,12,10,23.10
2014,08,25,12,11,23.10
2014,08,25,12,12,23.10
2014,08,25,12,13,23.10
2014,08,25,12,14,23.20
2014,08,25,12,15,23.30
2014,08,25,12,16,23.30
2014,08,25,12,17,23.40
2014,08,25,12,18,23.50
2014,08,25,12,19,23.60
2014,08,25,12,20,23.60
2014,08,25,12,21,23.60
2014,08,25,12,22,23.60
2014,08,25,12,23,23.60
2014,08,25,12,24,23.60
2014,08,25,12,25,23.60
2014,08,25,12,26,23.70
2014,08,25,12,27,23.70
2014,08,25,12,28,23.70
2014,08,25,12,29,23.70
2014,08,25,12,30,23.70
2014,08,25,12,31,23.60
2014,08,25,12,32,23.60
2014,08,25,12,33,23.50
2014,08,25,12,34,23.40
2014,08,25,12,35,23.30
2014,08,25,12,36,23.20
2014,08,25,12,37,23.10
2014,08,25,12,38,23.10
2014,08,25,12,39,23.20
2014,08,25,12,40,23.30
2014,08,25,12,41,23.30
2014,08,25,12,42,23.30
2014,08,25,12,43,23.30
2014,08,25,12,44,23.30
2014,08,25,12,45,23.40
2014,08,25,12,46,23.40
2014,08,25,12,47,23.50
2014,08,25,12,48,23.60
2014,08,25,12,49,23.70
2014,08,25,12,50,23.70
2014,08,25,12,51,23.80
2014,08,25,12,52,23.80
2014,08,25,12,53,23.80
2014,08,25,12,54,23.90
2014,08,25,12,55,23.90
2014,08,25,12,56,24.00
2014,08,25,12,57,24.10
2014,08,25,12,58,24.10
2014,08,25,12,59,24.20
2014,08,25,13,00,24.30
2014,08,25,13,01,24.40
2014,08,25,13,02,24.50
2014,08,25,13,03,24.60
2014,08,25,13,04,24.70
2014,08,25,13,05,24.70
2014,08,25,13,06,24.80
2014,08,25,13,07,24.80
2014,08,25,13,08,24.90
2014,08,25,13,09,25.00
2014,08,25,13,10,25.00
2014,08,25,13,11,25.00
2014,08,25,13,12,25.00
2014,08,25,13,13,25.00
2014,08,25,13,14,25.00
2014,08,25,13,15,24.90
2014,08,25,13,16,24.90
2014,08,25,13,17,24.90
2014,08,25,13,18,25.00
2014,08,25,13,19,25.00
2014,08,25,13,20,25.10
2014,08,25,13,21,25.20
2014,08,25,13,22,25.20
2014,08,25,13,23,25.30
2014,08,25,13,24,25.30
2014,08,25,13,25,25.20
2014,08,25,13,26,25.20
2014,08,25,13,27,25.20
2014,08,25,13,28,25.20
2014,08,25,13,29,25.10
2014,08,25,13,30,25.00
2014,08,25,13,31,24.90
2014,08,25,13,32,24.80
2014,08,25,13,33,24.80
2014,08,25,13,34,24.70
2014,08,25,13,35,24.60
2014,08,25,13,36,24.50
2014,08,25,13,37,24.50
2014,08,25,13,38,24.40
2014,08,25,13,39,24.30
2014,08,25,13,40,24.30
2014,08,25,13,41,24.30
2014,08,25,13,42,24.30
2014,08,25,13,43,24.30
2014,08,25,13,44,24.40
2014,08,25,13,45,24.40
2014,08,25,13,46,24.50
2014,08,25,13,47,24.60
2014,08,25,13,48,24.80
2014,08,25,13,49,24.90
2014,08,25,13,50,25.10
2014,08,25,13,51,25.20
2014,08,25,13,52,25.30
2014,08,25,13,53,25.30
2014,08,25,13,54,25.40
2014,08,25,13,55,25.30
2014,08,25,13,56,25.30
2014,08,25,13,57,25.20
2014,08,25,13,58,25.10
2014,08,25,13,59,25.00
2014,08,25,14,00,24.90
2014,08,25,14,01,24.80
2014,08,25,14,02,24.80
2014,08,25,14,03,24.80
2014,08,25,14,04,24.70
2014,08,25,14,05,24.70
2014,08,25,14,06,24.60
2014,08,25,14,07,24.50
2014,08,25,14,08,24.50
2014,08,25,14,09,24.50
2014,08,25,14,10,24.40
2014,08,25,14,11,24.40
2014,08,25,14,12,24.40
2014,08,25,14,13,24.40
2014,08,25,14,14,24.40
2014,08,25,14,15,24.40
2014,08,25,14,16,24.40
2014,08,25,14,17,24.40
2014,08,25,14,18,24.50
2014,08,25,14,19,24.50
2014,08,25,14,20,24.50
2014,08,25,14,21,24.60
2014,08,25,14,22,24.70
2014,08,25,14,23,24.80
2014,08,25,14,24,24.80
2014,08,25,14,25,24.80
2014,08,25,14,26,24.90
2014,08,25,14,27,25.00
2014,08,25,14,28,25.00
2014,08,25,14,29,25.10
2014,08,25,14,30,25.00
2014,08,25,14,31,25.00
2014,08,25,14,32,24.90
2014,08,25,14,33,24.80
2014,08,25,14,34,24.80
2014,08,25,14,35,24.80
2014,08,25,14,36,24.90
2014,08,25,14,37,25.00
2014,08,25,14,38,25.10
2014,08,25,14,39,25.20
2014,08,25,14,40,25.20
2014,08,25,14,41,25.20
2014,08,25,14,42,25.20
2014,08,25,14,43,25.20
2014,08,25,14,44,25.20
2014,08,25,14,45,25.20
2014,08,25,14,46,25.10
2014,08,25,14,47,25.10
2014,08,25,14,48,25.10
2014,08,25,14,49,25.00
2014,08,25,14,50,25.10
2014,08,25,14,51,25.10
2014,08,25,14,52,25.10
2014,08,25,14,53,25.20
2014,08,25,14,54,25.30
2014,08,25,14,55,25.40
2014,08,25,14,56,25.40
2014,08,25,14,57,25.50
2014,08,25,14,58,25.50
2014,08,25,14,59,25.50
2014,08,25,15,00,25.60
2014,08,25,15,01,25.70
2014,08,25,15,02,25.80
2014,08,25,15,03,25.80
2014,08,25,15,04,25.90
2014,08,25,15,05,25.90
2014,08,25,15,06,25.90
2014,08,25,15,07,25.80
2014,08,25,15,08,25.80
2014,08,25,15,09,25.70
2014,08,25,15,10,25.70
2014,08,25,15,11,25.70
2014,08,25,15,12,25.70
2014,08,25,15,13,25.70
2014,08,25,15,14,25.80
2014,08,25,15,15,25.70
2014,08,25,15,16,25.70
2014,08,25,15,17,25.70
2014,08,25,15,18,25.60
2014,08,25,15,19,25.60
2014,08,25,15,20,25.60
2014,08,25,15,21,25.60
2014,08,25,15,22,25.60
2014,08,25,15,23,25.60
2014,08,25,15,24,25.50
2014,08,25,15,25,25.50
2014,08,25,15,26,25.50
2014,08,25,15,27,25.40
2014,08,25,15,28,25.40
2014,08,25,15,29,25.50
2014,08,25,15,30,25.50
2014,08,25,15,31,25.60
2014,08,25,15,32,25.60
2014,08,25,15,33,25.50
2014,08,25,15,34,25.50
2014,08,25,15,35,25.50
2014,08,25,15,36,25.50
2014,08,25,15,37,25.50
2014,08,25,15,38,25.50
2014,08,25,15,39,25.50
2014,08,25,15,40,25.50
2014,08,25,15,41,25.40
2014,08,25,15,42,25.40
2014,08,25,15,43,25.40
2014,08,25,15,44,25.30
2014,08,25,15,45,25.30
2014,08,25,15,46,25.30
2014,08,25,15,47,25.30
2014,08,25,15,48,25.30
2014,08,25,15,49,25.30
2014,08,25,15,50,25.30
2014,08,25,15,51,25.30
2014,08,25,15,52,25.30
2014,08,25,15,53,25.30
2014,08,25,15,54,25.20
2014,08,25,15,55,25.20
2014,08,25,15,56,25.10
2014,08,25,15,57,25.10
2014,08,25,15,58,25.10
2014,08,25,15,59,25.00
2014,08,25,16,00,25.00
2014,08,25,16,01,25.00
2014,08,25,16,02,25.00
2014,08,25,16,03,25.00
2014,08,25,16,04,25.10
2014,08,25,16,05,25.10
2014,08,25,16,06,25.20
2014,08,25,16,07,25.20
2014,08,25,16,08,25.20
2014,08,25,16,09,25.20
2014,08,25,16,10,25.20
2014,08,25,16,11,25.20
2014,08,25,16,12,25.20
2014,08,25,16,13,25.20
2014,08,25,16,14,25.20
2014,08,25,16,15,25.20
2014,08,25,16,16,25.10
2014,08,25,16,17,25.10
2014,08,25,16,18,25.10
2014,08,25,16,19,25.00
2014,08,25,16,20,25.00
2014,08,25,16,21,25.00
2014,08,25,16,22,25.10
2014,08,25,16,23,25.10
2014,08,25,16,24,25.10
2014,08,25,16,25,25.10
2014,08,25,16,26,25.20
2014,08,25,16,27,25.20
2014,08,25,16,28,25.20
2014,08,25,16,29,25.20
2014,08,25,16,30,25.30
2014,08,25,16,31,25.30
2014,08,25,16,32,25.30
2014,08,25,16,33,25.30
2014,08,25,16,34,25.30
2014,08,25,16,35,25.30
2014,08,25,16,36,25.20
2014,08,25,16,37,25.20
2014,08,25,16,38,25.30
2014,08,25,16,39,25.30
2014,08,25,16,40,25.40
2014,08,25,16,41,25.40
2014,08,25,16,42,25.40
2014,08,25,16,43,25.40
2014,08,25,16,44,25.40
2014,08,25,16,45,25.40
2014,08,25,16,46,25.40
2014,08,25,16,47,25.40
2014,08,25,16,48,25.30
2014,08,25,16,49,25.30
2014,08,25,16,50,25.30
2014,08,25,16,51,25.30
2014,08,25,16,52,25.30
2014,08,25,16,53,25.40
2014,08,25,16,54,25.30
2014,08,25,16,55,25.40
2014,08,25,16,56,25.40
2014,08,25,16,57,25.40
2014,08,25,16,58,25.30
2014,08,25,16,59,25.30
2014,08,25,17,00,25.30
2014,08,25,17,01,25.30
2014,08,25,17,02,25.30
2014,08,25,17,03,25.30
2014,08,25,17,04,25.30
2014,08,25,17,05,25.30
2014,08,25,17,06,25.40
2014,08,25,17,07,25.40
2014,08,25,17,08,25.40
2014,08,25,17,09,25.40
2014,08,25,17,10,25.40
2014,08,25,17,11,25.50
2014,08,25,17,12,25.60
2014,08,25,17,13,25.60
2014,08,25,17,14,25.70
2014,08,25,17,15,25.80
2014,08,25,17,16,25.80
2014,08,25,17,17,25.90
2014,08,25,17,18,25.90
2014,08,25,17,19,25.90